User: anonymous   Login
Location: Unspecified
(0.0000°N, 0.0000°E)
Time: 17:55:51
(UTC+02:00)
Language:

Cosmos 1953 Rocket - Orbit

View from above orbital plane
View from above orbital plane
View from above satellite
View from above satellite

Ground track
Ground track

The orbit data is extracted from the following two-line orbital elements,

1 19211U 88050B   17178.67717582 +.00000068 +00000-0 +53963-5 0  9997
2 19211 082.5253 192.6103 0023492 083.4912 034.2038 14.82964927547266
Epoch (UTC): 27 June 2017 16:15:07
Eccentricity: 0.0023492
inclination: 82.5253°
perigee height: 603 km
apogee height: 636 km
right ascension of ascending node: 192.6103°
argument of perigee: 83.4912°
revolutions per day: 14.82964927
mean anomaly at epoch: 34.2038°
orbit number at epoch: 54726

The dashed part of the orbit path shows where the satellite is in the earth's shadow,  

DLR